Temperature
4 4 4 4 4 4 4 4 4 4 4 5 4 4 4 5 5 4 5 5 5 5 5 5 5 5 5 5 5 5 5 5 5 5 4 4 4 4 4 4 4 4 4 4
3 3 4 4 4 4 4 4 4 4 4 4 4 4 4 4 4 4 4 4 4 4 4 4 4 5 5 4 4 4 4 4 4 4 4 4 4 4 4 4 4 4 4 4
2 3 3 3 3 3 3 3 3 4 4 3 3 2 3 3 3 3 3 3 3 4 4 4 4 4 4 4 4 4 4 4 4 3 3 3 3 3 3 3 3 3 3 3
1 2 2 4 3 3 3 3 2 3 2 2 2 3 3 3 3 3 3 3 3 3 4 3 3 4 4 3 3 3 3 3 3 3 3 3 3 3 3 3 3 3 3 3
1 1 2 3 2 2 2 2 2 2 2 2 2 2 2 3 3 3 3 3 3 3 3 3 3 3 3 3 3 3 2 2 2 2 2 2 2 2 2 2 2 2 2 2
1 2 2 3 2 2 3 2 2 1 1 1 1 1 1 2 2 2 2 2 2 3 3 3 3 3 3 2 2 2 2 2 2 2 2 2 2 2 2 2 2 1 2 2
1 1 1 1 1 2 2 2 2 1 1 1 1 1 1 1 1 2 2 2 2 2 2 2 2 2 2 2 2 1 1 1 1 1 1 1 1 1 1 1 1 1 1 1
0 0 1 0 1 1 1 1 1 1 1 1 1 1 1 1 1 1 1 1 1 1 1 1 1 1 1 1 1 1 1 1 1 1 1 1 1 0 0 0 0 0 0 0
-0 0 0 0 0 0 0 0 0 0 0 0 -0 -0 -0 -0 0 0 0 0 0 0 0 1 0 0 1 0 0 0 0 0 0 0 0 0 0 -0 -0 -0 -0 -0 -0 -0
-1 -1 -1 -1 -0 -0 -0 -0 -0 -0 -0 -1 -1 -1 -1 -1 -1 -1 -1 -1 -1 -1 -1 -0 -0 -0 -0 -0 -0 -0 -0 -0 -0 -0 -0 -0 -1 -1 -1 -1 -1 -1 -1 -1
-2 -2 -2 -1 -1 -1 -1 -1 -1 -1 -1 -1 -1 -1 -2 -2 -2 -2 -1 -1 -1 -1 -2 -1 -1 -1 -1 -1 -1 -1 -1 -1 -1 -1 -1 -1 -1 -1 -1 -1 -1 -2 -2 -2
-2 -2 -2 -2 -2 -2 -2 -2 -2 -2 -2 -2 -2 -2 -2 -2 -2 -2 -2 -2 -2 -2 -2 -2 -2 -2 -2 -2 -2 -2 -2 -2 -2 -2 -2 -2 -2 -2 -2 -2 -2 -2 -2 -2
-2 -2 -2 -3 -3 -3 -3 -3 -3 -3 -3 -3 -3 -3 -3 -3 -3 -3 -3 -3 -3 -3 -3 -3 -3 -3 -2 -2 -2 -2 -2 -2 -3 -3 -3 -3 -3 -3 -3 -3 -3 -3 -3 -3
-3 -3 -3 -3 -3 -3 -3 -3 -3 -3 -3 -3 -3 -3 -3 -3 -4 -4 -4 -4 -3 -3 -3 -3 -3 -3 -3 -3 -3 -3 -3 -3 -3 -3 -3 -3 -3 -3 -3 -3 -3 -3 -3 -3
-3 -3 -3 -3 -4 -4 -4 -4 -4 -4 -4 -4 -4 -4 -4 -4 -4 -4 -4 -4 -4 -4 -4 -4 -4 -4 -4 -4 -4 -4 -4 -4 -4 -4 -4 -4 -4 -4 -4 -4 -4 -4 -4 -4
-4 -4 -4 -4 -4 -4 -4 -5 -5 -5 -5 -5 -5 -5 -5 -5 -5 -5 -5 -5 -5 -5 -5 -4 -4 -5 -5 -5 -4 -4 -4 -4 -4 -4 -4 -4 -4 -5 -5 -5 -5 -4 -4 -4
-5 -5 -5 -5 -5 -5 -5 -5 -5 -5 -5 -5 -5 -5 -5 -5 -5 -5 -6 -6 -6 -5 -5 -5 -5 -5 -5 -5 -5 -5 -5 -5 -5 -5 -5 -5 -5 -5 -5 -5 -5 -5 -5 -5
-5 -5 -5 -5 -5 -5 -5 -6 -6 -6 -6 -6 -6 -6 -6 -6 -6 -6 -6 -6 -6 -6 -6 -6 -6 -6 -5 -6 -6 -6 -6 -6 -6 -6 -6 -6 -6 -6 -6 -6 -6 -6 -6 -5
-5 -5 -5 -6 -6 -6 -6 -6 -6 -6 -6 -6 -6 -6 -7 -7 -7 -7 -7 -7 -7 -7 -6 -6 -6 -6 -6 -6 -6 -6 -6 -6 -6 -6 -6 -6 -6 -6 -6 -6 -6 -6 -6 -6
-6 -6 -6 -6 -6 -6 -7 -7 -7 -7 -7 -7 -7 -7 -7 -7 -7 -7 -7 -7 -7 -7 -7 -7 -7 -7 -7 -7 -7 -7 -7 -7 -7 -7 -7 -7 -7 -7 -7 -7 -7 -7 -7 -7
-6 -6 -7 -7 -7 -7 -7 -7 -7 -7 -8 -8 -8 -8 -8 -8 -8 -8 -8 -8 -8 -8 -8 -8 -8 -8 -8 -8 -8 -8 -8 -8 -8 -8 -7 -7 -7 -7 -7 -7 -7 -7 -7 -7
-7 -7 -7 -8 -8 -8 -8 -8 -8 -8 -8 -8 -8 -8 -8 -8 -8 -8 -8 -9 -9 -9 -8 -8 -8 -8 -8 -8 -8 -8 -8 -8 -8 -8 -8 -8 -8 -8 -8 -8 -8 -8 -8 -8
-8 -8 -8 -8 -8 -8 -8 -9 -9 -9 -9 -9 -9 -9 -9 -9 -9 -9 -9 -9 -9 -9 -9 -9 -9 -9 -9 -9 -9 -9 -9 -9 -8 -8 -8 -8 -8 -9 -9 -9 -9 -8 -8 -8
-9 -9 -9 -9 -9 -9 -9 -9 -9 -9 -9 -9 -10 -10 -10 -10 -10 -10 -10 -10 -10 -10 -10 -10 -10 -10 -10 -9 -9 -9 -9 -9 -9 -9 -9 -9 -9 -9 -9 -9 -9 -9 -9 -9
-9 -9 -9 -9 -9 -10 -10 -10 -10 -10 -10 -10 -10 -10 -10 -10 -10 -10 -10 -10 -10 -10 -10 -10 -10 -10 -10 -10 -10 -10 -9 -9 -9 -9 -9 -9 -9 -9 -9 -9 -9 -9 -9 -9
-10 -10 -10 -10 -10 -11 -11 -11 -11 -11 -11 -11 -10 -10 -11 -11 -11 -11 -11 -10 -10 -10 -10 -10 -10 -10 -10 -10 -10 -10 -10 -10 -10 -10 -9 -9 -9 -9 -9 -9 -9 -9 -9 -9
-10 -10 -11 -11 -11 -11 -11 -11 -11 -11 -11 -11 -11 -11 -11 -11 -11 -11 -11 -11 -11 -11 -11 -11 -11 -11 -11 -10 -10 -10 -10 -10 -10 -10 -10 -10 -9 -9 -10 -10 -10 -10 -9 -9
Wind_Speed
9 9 7 9 10 9 11 10 10 10 11 12 8 7 5 3 2 2 3 4 4 4 4 4 4 3 3 3 2 1 0 1 1 1 1 1 0 1 1 1 2 2 2 2
7 7 8 10 11 12 13 11 11 11 12 8 5 3 2 2 2 2 3 3 4 4 4 5 5 4 3 2 2 1 1 1 2 1 1 0 0 0 0 1 1 1 2 2
5 4 5 8 8 9 6 5 6 9 8 4 3 3 4 3 2 3 4 3 4 4 4 4 5 5 3 2 2 1 1 2 1 1 1 1 1 1 0 0 0 1 1 2
3 1 8 6 2 4 5 5 5 5 5 4 4 3 2 2 2 3 4 3 3 4 4 4 4 4 3 2 2 1 2 2 2 1 1 1 1 1 1 1 1 1 2 2
3 5 7 5 3 2 4 4 3 4 5 3 2 2 3 1 1 2 3 3 3 3 3 3 4 4 3 3 2 2 2 2 2 1 1 1 1 1 1 1 1 1 1 2
3 4 5 3 4 4 2 4 3 2 3 1 1 2 4 3 3 3 3 2 3 3 3 4 4 3 3 3 3 3 3 3 2 2 1 1 2 2 1 1 1 1 1 1
5 5 5 3 5 2 2 4 5 2 2 1 2 3 3 3 4 3 3 3 3 3 3 4 4 3 3 3 4 4 4 3 2 2 1 1 1 1 1 1 1 1 1 1
4 5 6 2 2 1 4 5 4 4 3 2 2 2 2 3 3 4 4 4 3 3 4 4 4 3 3 4 4 4 3 3 3 2 2 1 1 1 1 1 1 1 1 2
4 4 2 1 1 3 3 4 4 4 4 2 2 3 3 3 3 4 4 4 3 3 4 5 5 4 4 5 4 4 4 4 3 3 2 2 1 1 1 1 0 1 0 1
3 4 4 4 3 4 4 4 4 4 3 2 2 2 3 3 3 4 4 4 3 3 4 5 6 5 4 4 4 3 4 4 3 3 3 3 2 1 1 1 1 1 1 1
4 4 4 4 4 4 5 5 5 5 4 3 2 2 2 3 3 4 4 3 3 3 3 5 5 5 5 5 4 4 4 4 4 3 2 3 3 2 2 2 2 2 2 2
4 3 3 4 4 5 5 5 5 4 5 4 3 3 3 3 3 3 3 3 4 4 4 4 5 6 6 5 4 3 4 4 3 3 2 2 2 3 5 4 4 3 3 2
3 3 2 3 3 4 3 4 4 4 3 4 4 4 3 3 4 4 4 4 4 4 4 5 5 6 6 5 4 4 3 4 3 3 3 2 2 2 3 5 5 4 3 3
2 2 2 2 3 4 4 4 4 5 5 4 4 4 4 4 4 5 5 4 4 4 5 5 5 6 7 6 5 4 4 4 4 3 2 2 2 2 2 2 3 4 4 4
3 2 1 2 2 4 4 4 5 5 5 5 5 5 5 5 5 5 5 4 4 5 5 6 6 7 7 6 5 5 4 3 3 3 2 2 2 2 2 2 2 3 3 4
3 3 2 3 3 4 4 4 4 4 4 5 5 5 5 4 4 5 5 5 5 5 6 6 6 7 6 6 5 5 4 6 5 3 3 3 2 2 2 2 2 2 3 3
2 2 3 3 3 3 3 3 2 3 3 4 4 4 4 5 5 5 5 5 5 5 6 6 7 7 6 6 5 4 4 5 7 4 3 3 3 3 3 2 2 3 3 4
0 1 1 1 1 2 3 3 3 3 3 4 3 3 4 4 4 5 5 5 5 6 7 7 6 6 6 6 5 4 4 4 4 4 3 3 3 3 3 3 3 3 3 4
2 2 2 2 2 1 2 2 3 3 3 3 3 3 3 3 4 4 4 5 6 6 7 7 10 7 6 7 7 4 4 4 4 4 4 5 4 3 3 3 3 3 3 3
3 3 3 3 3 2 2 2 2 3 3 2 2 3 3 4 4 4 4 4 4 4 5 7 7 6 6 6 7 4 3 4 4 4 4 4 4 4 3 3 3 3 3 3
3 3 3 3 3 3 3 2 2 3 3 3 3 3 4 4 4 3 3 5 5 5 6 9 6 5 5 6 7 4 3 3 4 4 4 4 4 4 4 4 4 4 4 4
2 2 3 3 3 3 3 3 2 3 3 3 3 3 3 4 4 4 3 3 5 9 7 5 5 7 8 8 4 3 3 3 3 3 3 4 4 4 4 4 4 4 4 4
2 2 2 3 3 3 4 3 3 3 3 3 4 4 4 4 4 4 5 4 5 9 7 5 8 11 11 6 4 4 4 4 4 4 4 4 4 4 5 5 5 4 4 4
3 3 3 3 3 3 4 4 4 3 3 3 3 4 4 4 4 3 4 8 10 11 6 8 12 12 10 4 4 4 4 4 4 4 4 4 4 4 4 5 5 5 4 5
3 3 3 3 3 3 4 4 4 4 4 4 4 4 4 3 4 5 5 6 9 10 6 8 12 11 7 4 5 5 5 5 5 5 4 4 4 4 4 4 5 5 5 5
3 3 3 3 3 3 3 3 4 4 4 5 5 4 4 4 4 4 5 6 7 9 7 5 6 7 5 5 5 5 5 6 6 5 5 5 5 5 5 5 6 5 5 5
4 3 3 3 3 3 3 3 4 4 5 5 6 6 5 5 5 5 6 6 6 6 6 5 5 5 5 5 5 5 5 5 5 5 5 5 5 5 5 6 5 5 5 5
Wind_Direction
253 261 255 255 249 231 231 227 234 253 253 265 266 263 267 274 290 317 322 328 326 324 325 331 330 322 321 319 320 315 311 277 269 275 271 243 202 183 176 175 189 192 196 203
269 261 259 265 254 241 242 240 242 258 266 271 276 270 268 265 263 289 301 314 319 323 329 331 329 325 320 327 327 333 315 297 309 323 335 322 295 249 179 185 186 175 188 196
263 277 298 265 246 231 228 223 215 239 256 284 285 263 253 255 261 279 290 301 310 312 312 315 317 315 309 314 331 345 335 328 331 346 355 346 345 7 326 261 191 198 208 202
254 253 243 246 238 210 224 238 224 248 273 269 257 269 270 235 243 284 293 298 303 310 316 318 322 325 326 338 350 349 344 338 340 0 5 359 7 343 311 296 240 240 239 226
211 235 266 296 304 254 219 258 255 262 289 300 348 359 316 309 299 272 280 290 297 305 309 323 334 336 353 1 0 2 347 332 326 337 348 349 326 296 283 261 266 256 245 234
203 225 242 271 308 297 189 268 307 278 284 302 51 299 284 327 332 319 324 328 329 333 348 354 344 352 20 9 3 347 333 325 320 320 318 299 288 288 291 259 253 263 273 248
218 237 258 292 314 16 167 281 321 313 290 246 226 242 279 329 337 339 341 345 358 7 7 352 347 10 18 8 344 326 329 334 337 337 324 304 311 312 307 320 329 317 303 298
196 224 249 330 36 135 273 315 330 332 328 312 302 311 325 341 344 355 356 2 10 16 8 1 6 24 17 351 330 338 347 348 342 340 340 351 7 350 351 4 356 329 340 339
206 230 291 327 290 305 322 320 326 331 328 329 322 322 336 347 354 359 1 1 4 15 9 6 9 17 8 338 341 353 3 357 349 352 353 358 18 11 357 353 312 299 321 308
271 277 307 330 351 352 350 342 343 345 341 346 336 338 350 355 358 1 1 0 7 20 17 3 1 5 351 341 351 6 5 357 360 5 5 10 13 12 358 326 297 297 298 294
274 299 329 335 348 344 349 357 357 355 359 0 18 357 346 350 354 356 354 1 12 15 13 0 359 359 353 353 4 10 5 4 6 10 7 6 7 3 346 320 286 278 267 257
260 277 271 291 335 357 0 351 350 358 1 4 13 1 360 355 356 357 2 10 13 11 6 358 1 358 354 354 3 10 7 4 0 357 359 2 5 3 7 355 342 332 308 292
277 309 297 308 347 357 351 350 4 19 17 12 17 21 20 13 12 14 12 11 9 1 357 360 2 358 353 354 359 7 2 354 351 352 350 348 350 349 346 357 5 356 345 332
343 352 336 338 334 353 7 11 25 32 30 28 24 27 28 25 20 16 6 357 2 4 2 3 4 356 350 353 1 5 1 354 350 341 338 335 330 326 322 330 339 343 346 346
346 342 296 334 14 17 19 27 34 26 22 19 20 23 20 18 12 4 356 356 7 11 4 1 1 353 351 354 358 358 356 349 345 339 336 333 329 328 327 325 321 323 335 343
334 12 26 30 20 10 15 18 17 2 3 6 9 9 9 11 10 6 4 5 9 3 355 354 352 347 350 351 354 356 353 351 351 347 346 343 338 334 330 325 320 319 322 326
13 352 348 350 348 346 345 343 343 340 349 353 350 355 5 10 12 9 4 4 7 360 353 350 345 347 348 348 352 350 348 347 350 350 348 341 337 334 328 323 318 318 318 323
29 273 276 268 298 325 337 349 353 350 342 334 346 1 7 6 359 351 350 355 3 3 357 349 347 349 351 353 352 347 347 345 343 337 336 337 335 332 329 323 317 315 320 326
16 13 360 352 338 328 338 341 341 341 342 348 355 354 349 347 344 343 350 357 356 348 341 339 345 351 350 346 345 343 343 343 342 338 335 333 336 334 328 320 314 310 313 319
12 13 8 5 8 3 343 337 342 343 339 345 352 350 348 345 345 344 347 347 332 316 320 332 340 343 341 336 339 340 339 337 335 333 332 330 326 323 320 318 316 313 311 309
3 4 9 13 7 1 354 345 348 342 339 346 349 338 333 332 335 336 338 332 331 331 333 337 340 334 331 330 333 333 331 328 325 322 320 318 317 316 316 314 311 309 307 305
1 7 9 10 7 354 348 347 347 342 343 346 345 340 338 335 336 333 319 309 318 330 336 329 326 328 333 333 333 329 322 317 312 309 306 306 307 307 308 307 304 303 303 300
359 3 4 0 353 340 342 346 346 344 340 337 334 333 332 326 323 321 320 323 323 326 330 321 324 328 332 337 334 326 317 312 306 300 298 297 297 297 297 299 298 298 295 294
5 5 359 355 2 4 354 344 343 344 337 329 329 330 328 326 322 315 305 317 326 325 324 322 328 330 334 339 327 319 313 306 300 294 291 291 290 288 288 291 292 292 290 291
5 3 3 3 3 351 342 339 344 345 343 340 339 337 330 319 308 312 314 316 322 325 321 323 327 329 330 317 312 307 304 297 293 293 289 288 286 285 284 284 285 286 287 286
2 355 348 342 333 329 330 333 336 334 334 334 333 331 327 322 315 313 314 316 316 321 321 313 312 316 310 305 303 301 299 300 302 297 289 286 284 282 282 283 283 282 281 280
357 354 352 350 348 342 335 331 329 327 327 322 318 319 320 321 320 319 317 316 315 313 310 309 308 305 303 301 299 297 294 292 290 287 285 280 278 277 277 278 278 279 280 280
Height
1485 1483 1483 1482 1481 1482 1483 1481 1481 1473 1471 1465 1464 1463 1462 1462 1462 1462 1462 1461 1460 1459 1457 1456 1455 1453 1453 1452 1451 1451 1450 1450 1450 1451 1451 1452 1452 1453 1454 1455 1456 1457 1458 1459
1485 1481 1480 1477 1475 1475 1473 1473 1472 1469 1466 1462 1461 1461 1460 1460 1460 1460 1460 1459 1458 1457 1456 1454 1453 1451 1450 1449 1449 1448 1448 1448 1448 1448 1449 1449 1450 1450 1451 1452 1453 1454 1455 1456
1485 1480 1478 1475 1470 1469 1468 1467 1467 1466 1463 1461 1461 1460 1459 1458 1459 1459 1458 1457 1456 1455 1454 1453 1451 1450 1448 1447 1447 1446 1446 1446 1446 1446 1446 1447 1447 1448 1448 1449 1450 1451 1451 1452
1486 1483 1482 1468 1464 1463 1464 1463 1463 1462 1460 1459 1458 1458 1457 1457 1457 1456 1456 1455 1454 1453 1452 1451 1450 1448 1447 1446 1445 1444 1444 1444 1444 1444 1444 1444 1445 1445 1446 1446 1447 1448 1448 1449
1484 1481 1472 1467 1463 1463 1464 1461 1460 1459 1458 1458 1457 1456 1455 1455 1455 1455 1454 1453 1452 1451 1450 1449 1448 1446 1445 1444 1443 1443 1442 1442 1442 1442 1442 1442 1442 1443 1443 1443 1444 1445 1445 1446
1480 1477 1472 1466 1462 1460 1461 1461 1458 1457 1457 1457 1457 1458 1455 1454 1453 1452 1452 1451 1450 1449 1448 1447 1446 1445 1443 1442 1441 1440 1440 1440 1440 1440 1440 1440 1440 1440 1440 1441 1441 1441 1442 1442
1477 1475 1469 1466 1462 1460 1465 1462 1459 1456 1456 1456 1456 1456 1454 1453 1452 1451 1450 1449 1449 1448 1447 1446 1444 1443 1442 1440 1439 1439 1438 1438 1438 1438 1438 1438 1438 1438 1438 1438 1438 1439 1439 1439
1475 1475 1471 1464 1463 1465 1464 1460 1458 1456 1455 1455 1454 1453 1452 1451 1450 1450 1448 1447 1447 1446 1445 1444 1443 1442 1440 1439 1438 1438 1437 1436 1436 1436 1436 1435 1435 1435 1436 1435 1435 1435 1435 1436
1471 1469 1465 1463 1463 1463 1461 1460 1458 1456 1455 1454 1453 1451 1450 1450 1449 1449 1448 1447 1446 1445 1443 1443 1442 1441 1439 1438 1437 1436 1435 1434 1434 1433 1433 1433 1433 1433 1433 1433 1433 1432 1432 1433
1469 1465 1464 1463 1462 1461 1460 1459 1457 1455 1454 1453 1452 1451 1450 1449 1448 1447 1446 1445 1445 1443 1442 1441 1440 1439 1438 1437 1436 1435 1433 1433 1432 1431 1431 1431 1431 1431 1431 1431 1430 1430 1430 1430
1468 1465 1463 1461 1461 1460 1459 1457 1456 1454 1453 1452 1451 1450 1449 1448 1447 1446 1445 1444 1443 1442 1441 1440 1439 1438 1437 1436 1435 1433 1432 1431 1430 1429 1429 1428 1428 1428 1428 1428 1428 1428 1428 1428
1466 1464 1464 1461 1460 1459 1458 1456 1455 1454 1452 1451 1451 1450 1448 1447 1446 1445 1444 1443 1442 1441 1440 1439 1438 1437 1436 1435 1433 1432 1430 1429 1429 1428 1427 1427 1426 1426 1426 1427 1426 1426 1426 1426
1463 1462 1461 1460 1460 1459 1457 1456 1454 1453 1452 1451 1450 1449 1448 1446 1445 1444 1443 1442 1441 1440 1439 1438 1437 1436 1435 1434 1432 1431 1430 1429 1428 1427 1426 1426 1425 1424 1424 1424 1424 1424 1423 1423
1462 1461 1460 1459 1459 1458 1457 1456 1454 1453 1452 1451 1450 1449 1448 1446 1445 1444 1442 1441 1440 1439 1438 1437 1436 1435 1434 1432 1431 1430 1429 1428 1427 1426 1425 1425 1424 1423 1423 1422 1421 1421 1421 1420
1460 1460 1460 1458 1458 1457 1456 1455 1454 1452 1452 1451 1450 1448 1447 1446 1444 1443 1442 1440 1439 1438 1437 1436 1435 1433 1432 1431 1430 1429 1428 1427 1426 1425 1424 1423 1423 1422 1421 1420 1420 1419 1418 1418
1459 1459 1458 1457 1456 1456 1455 1454 1453 1452 1451 1450 1449 1448 1447 1445 1444 1442 1441 1439 1438 1437 1436 1435 1433 1432 1431 1430 1428 1427 1426 1425 1424 1423 1422 1421 1421 1420 1419 1418 1417 1417 1416 1415
1458 1457 1456 1456 1455 1455 1454 1454 1453 1452 1451 1450 1449 1447 1446 1445 1443 1442 1440 1439 1437 1436 1435 1434 1432 1431 1430 1428 1427 1426 1425 1424 1423 1422 1420 1420 1419 1418 1417 1416 1415 1415 1414 1413
1457 1457 1456 1455 1454 1453 1453 1452 1452 1451 1450 1449 1448 1446 1445 1443 1442 1440 1439 1438 1437 1435 1434 1433 1432 1430 1429 1427 1426 1425 1423 1422 1421 1420 1419 1418 1417 1416 1415 1414 1413 1413 1412 1411
1456 1455 1455 1454 1453 1452 1451 1451 1450 1449 1448 1447 1446 1445 1443 1442 1441 1440 1439 1437 1435 1434 1433 1432 1430 1428 1427 1426 1424 1423 1422 1420 1419 1418 1417 1416 1415 1414 1413 1412 1411 1410 1409 1408
1454 1454 1453 1452 1452 1451 1450 1449 1448 1448 1447 1445 1444 1443 1442 1441 1440 1439 1437 1436 1435 1433 1432 1430 1428 1427 1425 1424 1423 1421 1420 1419 1417 1416 1415 1414 1413 1412 1410 1409 1409 1408 1407 1406
1453 1452 1451 1450 1450 1449 1448 1447 1446 1445 1444 1444 1442 1441 1440 1439 1438 1437 1435 1434 1433 1432 1430 1428 1427 1425 1423 1422 1421 1419 1418 1417 1415 1414 1413 1412 1410 1409 1408 1407 1406 1405 1404 1403
1451 1450 1449 1448 1448 1447 1447 1446 1445 1443 1442 1442 1441 1440 1439 1437 1437 1435 1434 1433 1431 1430 1428 1426 1425 1423 1422 1420 1419 1417 1416 1414 1413 1412 1410 1409 1408 1407 1405 1404 1403 1402 1401 1400
1450 1449 1448 1447 1446 1445 1445 1444 1443 1442 1441 1439 1439 1438 1437 1436 1435 1433 1431 1430 1429 1427 1426 1424 1422 1421 1419 1418 1416 1415 1413 1412 1411 1409 1408 1406 1405 1404 1403 1401 1400 1399 1398 1397
1449 1448 1447 1446 1445 1444 1443 1442 1441 1440 1439 1438 1437 1436 1435 1433 1432 1431 1429 1428 1426 1424 1423 1421 1419 1418 1416 1414 1413 1412 1410 1409 1407 1406 1405 1404 1402 1401 1400 1398 1397 1396 1394 1393
1448 1447 1446 1445 1443 1442 1441 1440 1439 1438 1437 1436 1435 1434 1433 1431 1430 1428 1426 1425 1423 1421 1419 1418 1416 1414 1413 1411 1409 1408 1407 1405 1404 1403 1401 1400 1399 1398 1396 1395 1394 1392 1391 1390
1447 1446 1445 1444 1443 1442 1440 1439 1438 1437 1435 1434 1433 1432 1430 1429 1427 1425 1423 1421 1420 1418 1416 1414 1413 1411 1409 1408 1406 1404 1403 1402 1401 1399 1398 1397 1396 1394 1393 1391 1390 1389 1387 1386
1447 1445 1444 1443 1442 1441 1440 1438 1437 1435 1434 1432 1430 1429 1427 1426 1424 1422 1420 1418 1416 1415 1413 1411 1409 1408 1406 1404 1402 1401 1400 1398 1397 1396 1394 1393 1392 1390 1389 1388 1386 1385 1384 1382